Regional Weather Roundup
Issued by NWS

Home | Current Version | Previous Version | Text Only | Print | Product List | Glossary On
Versions: 1 2 3 4 5 6 7 8 9 10 11 12 13 14 15 16 17 18 19 20 21 22 23 24 25 26 27
000
ASUS45 KREV 310710
RWRNV
NEVADA REGIONAL WEATHER ROUNDUP
NATIONAL WEATHER SERVICE RENO NV
1200 AM PDT FRI OCT 31 2014

NOTE: "FAIR" INDICATES FEW OR NO CLOUDS BELOW 12,000 FEET WITH NO
SIGNIFICANT WEATHER AND/OR OBSTRUCTIONS TO VISIBILITY.

NVZ001-003-004-310800-
WESTERN NEVADA

CITY           SKY/WX    TMP DP  RH WIND       PRES   REMARKS
RENO           MOCLDY    55  31  39 SE7       29.94F
CARSON CITY    FAIR      48  25  40 N3        29.97F
MINDEN         FAIR      54  25  32 CALM      29.98
SLIDE MTN        N/A     36  25  64 SW28        N/A
PYRAMID LAKE     N/A     61 N/A N/A CALM        N/A
FALLON         MOCLDY    48  28  46 SE5       29.92F
LOVELOCK       MOCLDY    43  24  47 CALM      29.91F
HAWTHORNE      CLEAR     63  18  17 E3        29.94F
$$

NVZ002-CAZ072-073-310800-
NORTHERN AND CENTRAL SIERRA

CITY           SKY/WX    TMP DP  RH WIND       PRES   REMARKS
S. LAKE TAHOE  PTCLDY    50  24  36 VRB6      30.02F
TRUCKEE        PTCLDY    50  27  40 S6G16     30.02F
SQUAW VLY 8000 NOT AVBL
BLUE CANYON    PTCLDY    55  27  34 SE13G23   30.01F
MAMMOTH LAKES  FAIR      37  14  38 CALM      30.11S
BRIDGEPORT     FAIR      50  17  27 VRB5      30.03F
$$

NVZ030-031-036-310800-
NORTHERN NEVADA

CITY           SKY/WX    TMP DP  RH WIND       PRES   REMARKS
ELKO           MOCLDY    47  20  34 E5        29.99F
WINNEMUCCA     PTCLDY    44  21  40 SE6       29.91F
WENDOVER       CLOUDY    41  25  52 CALM      30.07F
$$

NVZ035-037-310800-
CENTRAL NEVADA

CITY           SKY/WX    TMP DP  RH WIND       PRES   REMARKS
ELY            CLOUDY    47  23  38 S14       30.12F
EUREKA           N/A     52  21  29 SW5       30.07S
$$

NVZ013-014-310800-
SOUTH CENTRAL NEVADA

CITY           SKY/WX    TMP DP  RH WIND       PRES   REMARKS
TONOPAH        MOCLDY    52  20  28 SE12      30.06F
$$

NVZ017-020-022-310800-
SOUTHERN NEVADA

CITY           SKY/WX    TMP DP  RH WIND       PRES   REMARKS
LAS VEGAS      CLOUDY    69  28  21 SW5       29.93S
N. LAS VEGAS   CLOUDY    67  31  26 CALM      29.96S
NELLIS AFB     CLOUDY    64  28  25 N3        29.95F
HENDERSON      MOCLDY    66  28  24 S5        29.99S
MERCURY        NOT AVBL
$$



USA.gov is the U.S. government's official web portal to all federal, state and local government web resources and services.